Terminal Aerodrome Forecast
Issued by NWS

Home | Current Version | Previous Version | Text Only | Print | Product List | Glossary On
Versions: 1 2 3 4 5 6 7 8 9 10 11 12 13 14 15 16 17
328
FTUS44 KMAF 291124
TAFFST
TAF
KFST 291124Z 2912/3012 23009KT P6SM SKC
     FM291500 27018G26KT P6SM SKC
     FM300200 27010KT P6SM SKC=

USA.gov is the U.S. government's official web portal to all federal, state and local government web resources and services.